Weather History for Chesapeake, VA

Change the Weather History Date:

Saturday, January 14, 2012

  Actual Average (KORF) Record (KORF)
Temperature  
Mean Temperature 35 °F 40 °F  
Max Temperature 44 °F 48 °F 77 °F (1932)
Min Temperature 26 °F 33 °F 9 °F (1893)
Degree Days  
Heating Degree Days 30 25  
Month to date heating degree days 345  
Since 1 July heating degree days 1524  
Cooling Degree Days 0 0  
Month to date cooling degree days 0  
Year to date cooling degree days 0  
Moisture  
Dew Point 21 °F    
Average Humidity 56    
Maximum Humidity 80    
Minimum Humidity 37    
Precipitation  
Precipitation 0.00 in 0.12 in 1.90 in (1961)
Month to date precipitation 1.54  
Year to date precipitation 1.54  
Snow  
Snow 0.00 in 0.10 in 2.80 in (1982)
Month to date snowfall 1.1  
Since 1 July snowfall 2.3  
Snow Depth -    
Sea Level Pressure  
Sea Level Pressure 30.10 in    
Wind  
Wind Speed 8 mph (West)    
Max Wind Speed 13 mph    
Max Gust Speed 20 mph    
Visibility 10 miles    
Events      
T = Trace of Precipitation, MM = Missing Value Source: NWS Daily Summary

Daily Weather History Graph

Daily Weather History Graph

Search for Another Location

Airport:

Trip Planner

Search our weather history database for the weather conditions in past years. The results will help you decide how hot, cold, wet, or windy it might be!

Date:

Astronomy

Jan. 14, 2012 Rise Set
Actual Time 7:17 AM EST 5:11 PM EST
Civil Twilight 6:48 AM EST 5:39 PM EST
Nautical Twilight 6:17 AM EST 6:11 PM EST
Astronomical Twilight 5:45 AM EST 6:42 PM EST
Moon 11:18 PM EST (1/14) 10:12 AM EST (1/14)
Length of Visible Light 10h 50m
Length of Day
9h 54m
Waning Gibbous, 69% of the Moon is Illuminated
Jan 14
Waning Gibbous
Jan 16
Last Quarter
Jan 23
New
Jan 30
First Quarter
Feb 7
Full

Hourly Weather History & Observations

Time (EST) Temp. Windchill Dew Point Humidity Pressure Visibility Wind Dir Wind Speed Gust Speed Precip Events Conditions
12:15 AM 37.4 °F 30.3 °F 21.2 °F 52% 30.01 in 10.0 mi West 10.4 mph 17.3 mph N/A   Clear
12:35 AM 37.4 °F 30.8 °F 21.2 °F 52% 30.01 in 10.0 mi West 9.2 mph - N/A   Clear
12:55 AM 37.4 °F 29.3 °F 21.2 °F 52% 30.01 in 10.0 mi WSW 12.7 mph 16.1 mph N/A   Clear
1:15 AM 35.6 °F 28.6 °F 21.2 °F 56% 30.01 in 10.0 mi West 9.2 mph - N/A   Clear
1:35 AM 35.6 °F 28.6 °F 19.4 °F 52% 30.02 in 10.0 mi West 9.2 mph - N/A   Clear
1:55 AM 33.8 °F 27.7 °F 19.4 °F 56% 30.03 in 10.0 mi West 6.9 mph - N/A   Clear
2:15 AM 33.8 °F 27.0 °F 19.4 °F 56% 30.04 in 10.0 mi West 8.1 mph - N/A   Clear
2:35 AM 33.8 °F 27.7 °F 21.2 °F 60% 30.04 in 10.0 mi West 6.9 mph - N/A   Clear
2:55 AM 32.0 °F 25.6 °F 21.2 °F 64% 30.05 in 10.0 mi West 6.9 mph - N/A   Clear
3:15 AM 32.0 °F 24.8 °F 21.2 °F 64% 30.06 in 10.0 mi West 8.1 mph - N/A   Clear
3:35 AM 32.0 °F 25.6 °F 21.2 °F 64% 30.06 in 10.0 mi West 6.9 mph - N/A   Clear
3:55 AM 30.2 °F 23.4 °F 21.2 °F 69% 30.06 in 10.0 mi West 6.9 mph - N/A   Clear
4:15 AM 30.2 °F 22.6 °F 21.2 °F 69% 30.07 in 10.0 mi West 8.1 mph - N/A   Clear
4:35 AM 30.2 °F 21.9 °F 21.2 °F 69% 30.08 in 10.0 mi West 9.2 mph - N/A   Clear
4:55 AM 30.2 °F 23.4 °F 21.2 °F 69% 30.09 in 10.0 mi West 6.9 mph - N/A   Clear
5:15 AM 30.2 °F 24.3 °F 21.2 °F 69% 30.10 in 10.0 mi West 5.8 mph - N/A   Clear
5:35 AM 30.2 °F 25.4 °F 21.2 °F 69% 30.10 in 10.0 mi WSW 4.6 mph - N/A   Clear
5:55 AM 28.4 °F 24.6 °F 21.2 °F 74% 30.11 in 10.0 mi WSW 3.5 mph - N/A   Clear
6:15 AM 28.4 °F 23.3 °F 21.2 °F 74% 30.12 in 10.0 mi WSW 4.6 mph - N/A   Clear
6:35 AM 28.4 °F 23.3 °F 21.2 °F 74% 30.13 in 10.0 mi West 4.6 mph - N/A   Clear
6:55 AM 28.4 °F - 21.2 °F 74% 30.13 in 10.0 mi Calm Calm - N/A   Clear
7:15 AM 26.6 °F 22.6 °F 21.2 °F 80% 30.13 in 10.0 mi WSW 3.5 mph - N/A   Clear
7:35 AM 26.6 °F - 21.2 °F 80% 30.13 in 10.0 mi Calm Calm - N/A   Clear
7:55 AM 28.4 °F 23.3 °F 21.2 °F 74% 30.14 in 10.0 mi WSW 4.6 mph - N/A   Clear
8:15 AM 30.2 °F - 23.0 °F 75% 30.15 in 10.0 mi Calm Calm - N/A   Clear
8:35 AM 32.0 °F 26.4 °F 21.2 °F 64% 30.15 in 10.0 mi WSW 5.8 mph - N/A   Clear
8:55 AM 33.8 °F 28.6 °F 21.2 °F 60% 30.16 in 10.0 mi West 5.8 mph - N/A   Clear
9:15 AM 35.6 °F 30.7 °F 21.2 °F 56% 30.17 in 10.0 mi West 5.8 mph - N/A   Clear
9:35 AM 35.6 °F 29.2 °F 21.2 °F 56% 30.19 in 10.0 mi West 8.1 mph - N/A   Clear
9:55 AM 37.4 °F 30.8 °F 21.2 °F 52% 30.18 in 10.0 mi West 9.2 mph - N/A   Clear
10:15 AM 37.4 °F 32.8 °F 21.2 °F 52% 30.18 in 10.0 mi WNW 5.8 mph - N/A   Clear
10:35 AM 39.2 °F 32.5 °F 21.2 °F 49% 30.18 in 10.0 mi WNW 10.4 mph - N/A   Clear
10:55 AM 39.2 °F 33.0 °F 19.4 °F 45% 30.17 in 10.0 mi WNW 9.2 mph - N/A   Clear
11:15 AM 41.0 °F 34.7 °F 19.4 °F 42% 30.16 in 10.0 mi WNW 10.4 mph - N/A   Clear
11:35 AM 41.0 °F 35.2 °F 19.4 °F 42% 30.15 in 10.0 mi West 9.2 mph - N/A   Clear
11:55 AM 41.0 °F 34.3 °F 19.4 °F 42% 30.14 in 10.0 mi WSW 11.5 mph 19.6 mph N/A   Clear
12:35 PM 42.8 °F 37.0 °F 19.4 °F 39% 30.12 in 10.0 mi WSW 10.4 mph 19.6 mph N/A   Clear
12:55 PM 42.8 °F 36.2 °F 21.2 °F 42% 30.11 in 10.0 mi West 12.7 mph 17.3 mph N/A   Clear
1:15 PM 42.8 °F 38.6 °F 19.4 °F 39% 30.09 in 10.0 mi WSW 6.9 mph - N/A   Clear
1:35 PM 42.8 °F 38.6 °F 19.4 °F 39% 30.08 in 10.0 mi West 6.9 mph - N/A   Clear
1:55 PM 42.8 °F 37.5 °F 21.2 °F 42% 30.08 in 10.0 mi SW 9.2 mph - N/A   Clear
2:15 PM 44.6 °F 40.7 °F 19.4 °F 37% 30.08 in 10.0 mi SW 6.9 mph - N/A   Clear
2:35 PM 44.6 °F 40.2 °F 19.4 °F 37% 30.08 in 10.0 mi West 8.1 mph - N/A   Clear
2:55 PM 44.6 °F 39.2 °F 19.4 °F 37% 30.08 in 10.0 mi SW 10.4 mph - N/A   Clear
3:15 PM 44.6 °F 41.4 °F 19.4 °F 37% 30.08 in 10.0 mi WSW 5.8 mph - N/A   Clear
3:35 PM 44.6 °F 40.2 °F 19.4 °F 37% 30.08 in 10.0 mi WSW 8.1 mph - N/A   Clear
3:55 PM 44.6 °F 39.2 °F 19.4 °F 37% 30.09 in 10.0 mi West 10.4 mph - N/A   Clear
4:15 PM 42.8 °F 37.5 °F 19.4 °F 39% 30.09 in 10.0 mi West 9.2 mph - N/A   Clear
4:35 PM 42.8 °F 38.0 °F 19.4 °F 39% 30.10 in 10.0 mi West 8.1 mph - N/A   Clear
4:55 PM 42.8 °F 39.3 °F 19.4 °F 39% 30.10 in 10.0 mi West 5.8 mph - N/A   Clear
5:15 PM 39.2 °F 37.0 °F 21.2 °F 49% 30.11 in 10.0 mi WSW 3.5 mph - N/A   Clear
5:35 PM 39.2 °F - 21.2 °F 49% 30.11 in 10.0 mi Calm Calm - N/A   Clear
5:55 PM 37.4 °F 34.9 °F 23.0 °F 56% 30.12 in 10.0 mi WSW 3.5 mph - N/A   Clear
6:15 PM 35.6 °F 32.8 °F 21.2 °F 56% 30.13 in 10.0 mi WSW 3.5 mph - N/A   Clear
6:35 PM 33.8 °F 29.6 °F 23.0 °F 65% 30.14 in 10.0 mi West 4.6 mph - N/A   Clear
6:55 PM 33.8 °F 30.8 °F 24.8 °F 70% 30.15 in 10.0 mi SSW 3.5 mph - N/A   Scattered Clouds
7:15 PM 33.8 °F - 26.6 °F 75% 30.15 in 10.0 mi Calm Calm - N/A   Mostly Cloudy
7:35 PM 33.8 °F - 26.6 °F 75% 30.14 in 10.0 mi Calm Calm - N/A   Mostly Cloudy
7:55 PM 33.8 °F - 26.6 °F 75% 30.15 in 10.0 mi Calm Calm - N/A   Overcast
8:15 PM 33.8 °F - 28.4 °F 81% 30.15 in 10.0 mi Calm Calm - N/A   Mostly Cloudy
8:35 PM 32.0 °F - 26.6 °F 80% 30.15 in 10.0 mi Calm Calm - N/A   Clear
8:55 PM 30.2 °F - 24.8 °F 80% 30.16 in 10.0 mi Calm Calm - N/A   Clear
9:15 PM 30.2 °F - 24.8 °F 80% 30.16 in 10.0 mi Calm Calm - N/A   Clear
9:35 PM 30.2 °F - 24.8 °F 80% 30.16 in 10.0 mi Calm Calm - N/A   Clear
9:55 PM 30.2 °F - 26.6 °F 86% 30.16 in 10.0 mi Calm Calm - N/A   Clear
10:15 PM 28.4 °F - 24.8 °F 86% 30.16 in 10.0 mi Calm Calm - N/A   Clear
10:55 PM 28.4 °F - 24.8 °F 86% 30.17 in 10.0 mi Calm Calm - N/A   Clear
11:15 PM 28.4 °F - 24.8 °F 86% 30.17 in 10.0 mi Calm Calm - N/A   Clear
11:35 PM 28.4 °F 24.6 °F 24.8 °F 86% 30.17 in 10.0 mi South 3.5 mph - N/A   Clear
11:55 PM 28.4 °F - 24.8 °F 86% 30.16 in 10.0 mi Calm Calm - N/A   Clear